FW0527 Weather Reports


Display with metric or nautical units.
time (UTC)temp
F
wind
direction
speed
MPH
gust
MPH
rain 1hr
in
rain 24hr
in
rain mn
in
humidity
%
barometer
mb
20260906231504 73 292 0.0 0.0 0.00 0.05 0.05 69 1010.8
20260906230008 72 292 0.0 0.0 0.00 0.05 0.05 71 1010.8
20260906224504 72 292 0.0 0.0 0.00 0.05 0.05 74 1010.8
20260906223003 72 292 0.0 0.0 0.01 0.05 0.05 76 1010.8
20260906221502 72 292 0.0 0.0 0.01 0.05 0.05 77 1010.8
20260906220009 73 292 0.0 0.0 0.01 0.05 0.05 79 1011.1
20260906214508 73 292 0.0 0.0 0.02 0.05 0.05 78 1011.2
20260906213002 73 309 0.0 0.0 0.02 0.04 0.04 76 1011.3
20260906211501 74 309 0.0 0.0 0.02 0.04 0.04 76 1011.3
20260906210112 74 309 0.0 0.0 0.02 0.04 0.04 75 1011.2
20260906204602 74 309 0.0 0.0 0.01 0.03 0.03 73 1011.5
20260906203101 74 309 0.0 0.0 0.00 0.02 0.02 72 1011.5
20260906201635 74 309 0.0 0.0 0.00 0.02 0.02 72 1011.7
20260906200058 74 323 0.0 0.0 0.00 0.02 0.02 72 1011.9
20260906194605 74 349 0.0 3.0 0.00 0.02 0.02 70 1011.8
20260906193056 74 355 2.0 8.0 0.00 0.02 0.02 68 1012.0
20260906191608 74 302 1.0 9.0 0.00 0.02 0.02 68 1011.9
20260906190055 74 337 0.0 5.0 0.00 0.02 0.02 69 1012.2
20260906184558 74 304 0.0 1.0 0.00 0.02 0.02 66 1012.1
20260906183052 74 304 0.0 0.0 0.00 0.02 0.02 67 1012.1
20260906181604 73 315 0.0 0.0 0.00 0.02 0.02 68 1012.1
20260906180049 73 339 0.0 0.0 0.00 0.02 0.02 71 1012.1
20260906174547 72 340 0.0 0.0 0.00 0.02 0.02 73 1012.0
20260906173045 71 355 0.0 0.0 0.00 0.02 0.02 76 1012.0
20260906171542 71 355 0.0 0.0 0.00 0.02 0.02 79 1011.8
20260906170040 70 355 0.0 0.0 0.00 0.02 0.02 82 1011.7
20260906164537 69 5 0.0 0.0 0.00 0.02 0.02 86 1011.6
20260906163049 68 5 0.0 0.0 0.00 0.02 0.02 89 1011.4
20260906161534 68 319 0.0 0.0 0.00 0.02 0.02 90 1011.4
20260906160033 68 320 0.0 0.0 0.00 0.02 0.02 90 1011.4
20260906154531 67 320 0.0 0.0 0.00 0.02 0.02 91 1011.4
20260906153033 66 320 0.0 0.0 0.00 0.02 0.02 91 1011.5
20260906151529 65 320 0.0 0.0 0.00 0.02 0.02 90 1011.5
20260906150032 65 320 0.0 0.0 0.00 0.02 0.02 90 1011.6
20260906144528 64 320 0.0 0.0 0.00 0.02 0.02 89 1011.5
20260906143027 64 320 0.0 0.0 0.00 0.02 0.02 89 1011.4
20260906141525 63 320 0.0 0.0 0.00 0.02 0.02 88 1011.2
20260906140024 63 320 0.0 0.0 0.01 0.02 0.02 87 1011.0
20260906134523 63 320 0.0 0.0 0.01 0.02 0.02 87 1010.9
20260906133027 63 320 0.0 0.0 0.01 0.02 0.02 86 1010.8
20260906131520 62 320 0.0 0.0 0.01 0.02 0.02 86 1010.7
20260906130021 62 320 0.0 0.0 0.00 0.01 0.01 85 1010.6
20260906124517 62 320 0.0 0.0 0.00 0.01 0.01 84 1010.6
20260906123023 62 320 0.0 0.0 0.00 0.01 0.01 84 1010.6
20260906121513 62 320 0.0 0.0 0.00 0.01 0.01 83 1010.7
20260906120010 63 320 0.0 0.0 0.00 0.01 0.01 83 1010.8
20260906114524 63 320 0.0 0.0 0.00 0.01 0.01 82 1010.8
20260906113006 63 320 0.0 0.0 0.01 0.01 0.01 81 1011.0
20260906111503 64 320 0.0 0.0 0.01 0.01 0.01 80 1010.9
20260906110004 64 320 0.0 0.0 0.01 0.01 0.01 80 1011.1
20260906104600 64 320 0.0 0.0 0.01 0.01 0.01 79 1011.2
20260906103100 65 320 0.0 0.0 0.00 0.00 0.00 79 1011.1
20260906101603 64 320 0.0 0.0 0.00 0.00 0.00 77 1011.0
20260906100058 64 320 0.0 0.0 0.00 0.00 0.00 77 1011.0
20260906094557 64 320 0.0 0.0 0.00 0.00 0.00 77 1011.0
20260906093055 64 320 0.0 0.0 0.00 0.00 0.00 76 1011.1
20260906091555 64 320 0.0 0.0 0.00 0.00 0.00 76 1011.3
20260906090053 64 320 0.0 0.0 0.00 0.00 0.00 76 1011.4
20260906084550 65 320 0.0 0.0 0.00 0.00 0.00 75 1011.6
20260906083048 65 320 0.0 0.0 0.00 0.00 0.00 74 1011.7
20260906081547 66 320 0.0 0.0 0.00 0.00 0.00 74 1011.8
20260906080043 66 320 0.0 0.0 0.00 0.00 0.00 72 1011.9
20260906074544 67 320 0.0 0.0 0.00 0.00 0.00 68 1012.3
20260906073043 67 320 0.0 0.0 0.00 0.00 0.00 66 1012.4
20260906071534 67 320 0.0 0.0 0.00 0.00 0.00 64 1012.6
20260906070031 67 318 0.0 0.0 0.00 0.00 0.00 60 1012.6
20260906064531 67 318 0.0 0.0 0.00 0.00 0.00 59 1012.5
20260906063031 67 318 0.0 0.0 0.00 0.00 0.00 58 1012.6
20260906061530 67 318 0.0 0.0 0.00 0.00 0.00 56 1012.6
20260906060034 67 318 0.0 0.0 0.00 0.00 0.00 56 1012.6
20260906054528 67 318 0.0 0.0 0.00 0.00 0.00 55 1012.6
20260906053031 68 318 0.0 0.0 0.00 0.00 0.00 54 1012.8
20260906051526 68 318 0.0 0.0 0.00 0.00 0.00 54 1012.7
20260906050025 69 318 0.0 0.0 0.00 0.00 0.00 53 1012.7
20260906044525 69 318 0.0 0.0 0.00 0.00 0.00 52 1012.7
20260906043027 70 318 0.0 0.0 0.00 0.00 0.00 52 1012.7
20260906041529 70 318 0.0 0.0 0.00 0.00 0.00 51 1012.6
20260906040032 71 318 0.0 0.0 0.00 0.00 0.00 50 1012.5
20260906034528 71 314 0.0 0.0 0.00 0.00 0.00 49 1012.6
20260906033021 72 310 0.0 0.0 0.00 0.00 0.00 49 1012.4
20260906031534 73 330 0.0 1.0 0.00 0.00 0.00 47 1012.3
20260906030021 73 315 0.0 5.0 0.00 0.00 0.00 46 1012.2
20260906024620 74 294 0.0 3.0 0.00 0.00 0.00 45 1012.1
20260906023019 75 303 0.0 1.0 0.00 0.00 0.00 44 1012.0
20260906021521 76 304 0.0 6.0 0.00 0.00 0.00 43 1012.0
20260906020018 76 295 0.0 0.0 0.00 0.00 0.00 41 1012.1
20260906014523 77 290 0.0 0.0 0.00 0.00 0.00 40 1012.1
20260906013017 78 305 0.0 1.0 0.00 0.00 0.00 39 1012.2
20260906011516 79 313 0.0 9.0 0.00 0.00 0.00 38 1012.2
20260906010015 80 316 0.0 10.0 0.00 0.00 0.00 38 1012.2
20260906004514 81 296 0.0 12.0 0.00 0.00 0.00 39 1012.1
20260906003014 81 205 0.0 3.0 0.00 0.00 0.00 40 1012.2
20260906001512 81 290 0.0 8.0 0.00 0.00 0.00 38 1012.1
20260906000011 82 216 0.0 8.0 0.00 0.00 0.00 37 1012.2
20260905234509 83 33 0.0 6.0 0.00 0.00 0.00 35 1012.1
20260905233008 83 304 0.0 1.0 0.00 0.00 0.00 35 1012.4